Randolph AFB, TX

12:20 PM CDT on March 26, 2017 (GMT -0500)
Randolph Air Force Base

Weather History for KRND - March, 2012

Change the Weather History Date:

Sunday, March 18, 2012

  Actual Average Record
Temperature  
Mean Temperature 70 °F -  
Max Temperature 76 °F 69 °F 94 °F (2013)
Min Temperature 66 °F 50 °F 42 °F (2001)
Cooling Degree Days 6    
Growing Degree Days 20 (Base 50)    
Moisture  
Dew Point 68 °F    
Average Humidity 93    
Maximum Humidity 100    
Minimum Humidity 78    
Precipitation  
Precipitation 0.01 in - - ()
Sea Level Pressure  
Sea Level Pressure 29.94 in    
Wind  
Wind Speed 11 mph (SSE)    
Max Wind Speed 26 mph    
Max Gust Speed 31 mph    
Visibility 10 miles    
Events Rain    
Averages and records for this station are not official NWS values.
T = Trace of Precipitation, MM = Missing Value Source: NWS Daily Summary

Daily Weather History Graph

Daily Weather History Graph

Search for Another Location

Airport or City:

Trip Planner

Search our weather history database for the weather conditions in past years. The results will help you decide how hot, cold, wet, or windy it might be!

Date:

Astronomy

Mar. 18, 2012 Rise Set
Actual Time 7:38 AM CDT 7:43 PM CDT
Civil Twilight 7:14 AM CDT 8:07 PM CDT
Nautical Twilight 6:47 AM CDT 8:35 PM CDT
Astronomical Twilight 6:19 AM CDT 9:02 PM CDT
Moon 5:02 AM CDT (3/18) 4:25 PM CDT (3/18)
Length of Visible Light 12h 52m
Length of Day
12h 04m
Waning Crescent, 15% of the Moon is Illuminated
Mar 18
Waning Crescent
Mar 22
New
Mar 30
First Quarter
Apr 6
Full
Apr 13
Last Quarter

Hourly Weather History & Observations

Time (CDT) Temp. Dew Point Humidity Pressure Visibility Wind Dir Wind Speed Gust Speed Precip Events Conditions
12:00 AM 66.2 °F 66.2 °F 100% 30.00 in 10.0 mi SE 10.4 mph - N/A   Overcast
12:42 AM 66.2 °F 66.2 °F 100% 30.00 in 10.0 mi SE 11.5 mph - N/A   Overcast
12:55 AM 67.1 °F 66.9 °F 99% 30.00 in 10.0 mi SSE 11.5 mph - N/A   Overcast
1:25 AM 66.2 °F 66.2 °F 100% 29.99 in 10.0 mi SSE 10.4 mph - N/A   Overcast
1:33 AM 66.2 °F 66.2 °F 100% 29.99 in 10.0 mi SSE 11.5 mph - N/A   Overcast
1:42 AM 66.2 °F 66.2 °F 100% 29.99 in 10.0 mi SSE 9.2 mph - N/A   Overcast
1:55 AM 66.7 °F 66.4 °F 99% 29.98 in 10.0 mi SSE 10.4 mph - N/A   Overcast
2:25 AM 66.2 °F 66.2 °F 100% 29.96 in 10.0 mi SE 9.2 mph - N/A   Overcast
2:27 AM 66.2 °F 66.2 °F 100% 29.96 in 10.0 mi SE 9.2 mph - N/A   Overcast
2:55 AM 67.1 °F 66.7 °F 99% 29.94 in 10.0 mi SSE 12.7 mph 21.9 mph N/A   Overcast
3:55 AM 67.6 °F 67.3 °F 99% 29.93 in 10.0 mi SSE 11.5 mph - N/A   Overcast
4:55 AM 68.2 °F 67.8 °F 99% 29.94 in 10.0 mi South 11.5 mph - N/A   Overcast
5:02 AM 68.0 °F 68.0 °F 100% 29.94 in 10.0 mi South 11.5 mph - N/A   Overcast
5:17 AM 68.0 °F 68.0 °F 100% 29.94 in 10.0 mi South 11.5 mph - N/A   Mostly Cloudy
5:22 AM 68.0 °F 68.0 °F 100% 29.94 in 10.0 mi South 11.5 mph - N/A   Overcast
5:23 AM 68.0 °F 68.0 °F 100% 29.94 in 10.0 mi South 11.5 mph - N/A   Mostly Cloudy
5:26 AM 68.0 °F 68.0 °F 100% 29.94 in 10.0 mi South 9.2 mph - N/A   Mostly Cloudy
5:31 AM 68.0 °F 68.0 °F 100% 29.94 in 10.0 mi South 11.5 mph - N/A   Overcast
5:32 AM 68.0 °F 68.0 °F 100% 29.94 in 10.0 mi South 10.4 mph - N/A   Overcast
5:52 AM 68.0 °F 68.0 °F 100% 29.94 in 10.0 mi SSE 10.4 mph - N/A   Overcast
5:55 AM 68.0 °F 67.6 °F 99% 29.94 in 10.0 mi SSE 10.4 mph - N/A   Overcast
6:05 AM 68.0 °F 68.0 °F 100% 29.94 in 10.0 mi SSE 9.2 mph - N/A   Overcast
6:16 AM 68.0 °F 68.0 °F 100% 29.94 in 10.0 mi SSE 8.1 mph - N/A   Mostly Cloudy
6:55 AM 66.9 °F 66.6 °F 99% 29.93 in 10.0 mi SE 6.9 mph - N/A   Mostly Cloudy
6:57 AM 66.2 °F 66.2 °F 100% 29.93 in 10.0 mi SE 6.9 mph - N/A   Mostly Cloudy
7:02 AM 66.2 °F 66.2 °F 100% 29.93 in 10.0 mi SE 6.9 mph - N/A   Mostly Cloudy
7:05 AM 68.0 °F 66.2 °F 94% 29.93 in 10.0 mi SE 6.9 mph - N/A   Mostly Cloudy
7:10 AM 66.2 °F 66.2 °F 100% 29.93 in 10.0 mi SE 5.8 mph - N/A   Mostly Cloudy
7:11 AM 66.2 °F 66.2 °F 100% 29.94 in 10.0 mi SE 5.8 mph - N/A   Mostly Cloudy
7:15 AM 66.2 °F 66.2 °F 100% 29.94 in 10.0 mi SE 5.8 mph - N/A   Mostly Cloudy
7:19 AM 66.2 °F 66.2 °F 100% 29.94 in 10.0 mi SE 5.8 mph - N/A   Mostly Cloudy
7:25 AM 66.2 °F 66.2 °F 100% 29.94 in 10.0 mi SE 4.6 mph - N/A   Mostly Cloudy
7:26 AM 66.2 °F 66.2 °F 100% 29.94 in 10.0 mi SE 4.6 mph - N/A   Mostly Cloudy
7:29 AM 66.2 °F 66.2 °F 100% 29.94 in 10.0 mi SSE 5.8 mph - N/A   Mostly Cloudy
7:43 AM 66.2 °F 66.2 °F 100% 29.94 in 10.0 mi SE 3.5 mph - N/A   Mostly Cloudy
7:55 AM 66.9 °F 66.9 °F 100% 29.94 in 10.0 mi SE 4.6 mph - N/A   Mostly Cloudy
7:56 AM 66.2 °F 66.2 °F 100% 29.94 in 10.0 mi SE 3.5 mph - N/A   Mostly Cloudy
7:59 AM 66.2 °F 66.2 °F 100% 29.95 in 10.0 mi SE 4.6 mph - N/A   Mostly Cloudy
8:00 AM 66.2 °F 66.2 °F 100% 29.95 in 10.0 mi SSE 4.6 mph - N/A   Mostly Cloudy
8:01 AM 66.2 °F 66.2 °F 100% 29.95 in 10.0 mi SSE 4.6 mph - N/A   Mostly Cloudy
8:08 AM 66.2 °F 66.2 °F 100% 29.95 in 10.0 mi SSE 5.8 mph - N/A   Mostly Cloudy
8:31 AM 68.0 °F 68.0 °F 100% 29.96 in 10.0 mi SSE 5.8 mph - N/A   Mostly Cloudy
8:35 AM 68.0 °F 68.0 °F 100% 29.96 in 10.0 mi SSE 5.8 mph - N/A   Scattered Clouds
8:49 AM 68.0 °F 68.0 °F 100% 29.97 in 10.0 mi SSE 6.9 mph - N/A   Mostly Cloudy
8:51 AM 68.0 °F 68.0 °F 100% 29.97 in 10.0 mi SSE 6.9 mph - N/A   Scattered Clouds
8:55 AM 67.6 °F 67.6 °F 100% 29.97 in 10.0 mi SSE 6.9 mph - N/A   Scattered Clouds
9:05 AM 68.0 °F 68.0 °F 100% 29.97 in 10.0 mi SSE 6.9 mph - N/A   Mostly Cloudy
9:13 AM 68.0 °F 68.0 °F 100% 29.97 in 10.0 mi SSE 8.1 mph - N/A   Mostly Cloudy
9:25 AM 68.0 °F 68.0 °F 100% 29.98 in 10.0 mi SSE 8.1 mph - N/A   Mostly Cloudy
9:30 AM 68.0 °F 68.0 °F 100% 29.98 in 10.0 mi SSE 8.1 mph - N/A   Scattered Clouds
9:44 AM 68.0 °F 68.0 °F 100% 29.99 in 10.0 mi South 8.1 mph - N/A   Mostly Cloudy
9:51 AM 69.8 °F 68.0 °F 94% 29.99 in 10.0 mi SSE 8.1 mph - N/A   Mostly Cloudy
9:53 AM 69.8 °F 69.8 °F 100% 29.99 in 10.0 mi SSE 8.1 mph - N/A   Mostly Cloudy
9:55 AM 69.3 °F 69.1 °F 99% 29.99 in 10.0 mi SSE 8.1 mph - N/A   Mostly Cloudy
9:57 AM 69.8 °F 69.8 °F 100% 29.99 in 10.0 mi SSE 8.1 mph - N/A   Mostly Cloudy
10:03 AM 69.8 °F 69.8 °F 100% 29.99 in 10.0 mi SSE 9.2 mph - N/A   Mostly Cloudy
10:32 AM 71.6 °F 69.8 °F 94% 29.99 in 10.0 mi SSE 11.5 mph - N/A   Mostly Cloudy
10:52 AM 71.6 °F 68.0 °F 88% 30.00 in 10.0 mi SSE 15.0 mph - N/A   Scattered Clouds
10:55 AM 71.4 °F 68.9 °F 92% 30.00 in 10.0 mi SSE 12.7 mph - N/A   Scattered Clouds
11:16 AM 71.6 °F 68.0 °F 88% 30.00 in 10.0 mi SSE 12.7 mph - N/A   Mostly Cloudy
11:19 AM 71.6 °F 69.8 °F 94% 30.00 in 10.0 mi SSE 9.2 mph - N/A   Mostly Cloudy
11:20 AM 71.6 °F 69.8 °F 94% 30.00 in 10.0 mi SSE 8.1 mph - N/A   Mostly Cloudy
11:25 AM 71.6 °F 69.8 °F 94% 30.00 in 10.0 mi SSE 10.4 mph - N/A   Mostly Cloudy
11:35 AM 71.6 °F 68.0 °F 88% 30.00 in 10.0 mi South 12.7 mph - N/A   Overcast
11:36 AM 71.6 °F 68.0 °F 88% 30.00 in 10.0 mi South 12.7 mph - N/A   Overcast
11:53 AM 71.6 °F 68.0 °F 88% 30.00 in 10.0 mi SSE 11.5 mph - N/A   Overcast
11:55 AM 72.3 °F 68.7 °F 88% 30.00 in 10.0 mi SSE 13.8 mph - N/A   Overcast
12:07 PM 73.4 °F 68.0 °F 83% 29.99 in 10.0 mi SSE 13.8 mph - N/A   Mostly Cloudy
12:55 PM 74.1 °F 68.2 °F 82% 29.97 in 10.0 mi SSE 17.3 mph 23.0 mph N/A   Partly Cloudy
1:42 PM 73.4 °F 68.0 °F 83% 29.95 in 10.0 mi SSE 17.3 mph - N/A   Overcast
1:47 PM 73.4 °F 68.0 °F 83% 29.95 in 10.0 mi SSE 17.3 mph - N/A   Overcast
1:55 PM 73.6 °F 68.2 °F 83% 29.95 in 10.0 mi SSE 13.8 mph - N/A   Overcast
2:37 PM 75.2 °F 68.0 °F 78% 29.93 in 10.0 mi SSE 15.0 mph 20.7 mph N/A   Mostly Cloudy
2:44 PM 73.4 °F 68.0 °F 83% 29.94 in 10.0 mi SSE 17.3 mph 23.0 mph N/A Rain Light Rain
2:45 PM 73.4 °F 68.0 °F 83% 29.92 in 9.0 mi SSE 17.3 mph 23.0 mph N/A Rain Light Rain
2:55 PM 72.7 °F 69.1 °F 88% 29.92 in 9.0 mi SSE 8.1 mph - 0.01 in Rain Light Rain
3:12 PM 73.4 °F 69.8 °F 88% 29.91 in 10.0 mi SSE 12.7 mph - N/A   Mostly Cloudy
3:55 PM 75.0 °F 69.1 °F 82% 29.88 in 10.0 mi SSE 17.3 mph 23.0 mph 0.00 in   Mostly Cloudy
4:11 PM 75.2 °F 69.8 °F 83% 29.87 in 10.0 mi SE 17.3 mph - N/A   Mostly Cloudy
4:15 PM 75.2 °F 69.8 °F 83% 29.86 in 10.0 mi SSE 19.6 mph 24.2 mph N/A   Mostly Cloudy
4:55 PM 75.0 °F 68.4 °F 80% 29.86 in 10.0 mi SE 13.8 mph 21.9 mph N/A   Mostly Cloudy
5:55 PM 73.9 °F 68.0 °F 82% 29.86 in 10.0 mi SE 18.4 mph - N/A   Overcast
6:02 PM 73.4 °F 68.0 °F 83% 29.86 in 10.0 mi SE 17.3 mph 25.3 mph N/A   Overcast
6:04 PM 73.4 °F 68.0 °F 83% 29.86 in 10.0 mi SE 18.4 mph 25.3 mph N/A   Overcast
6:05 PM 73.4 °F 68.0 °F 83% 29.86 in 10.0 mi SE 17.3 mph 25.3 mph N/A   Overcast
6:08 PM 73.4 °F 68.0 °F 83% 29.86 in 10.0 mi SE 16.1 mph 25.3 mph N/A   Overcast
6:21 PM 73.4 °F 68.0 °F 83% 29.86 in 10.0 mi SE 13.8 mph 23.0 mph N/A   Overcast
6:30 PM 73.4 °F 66.2 °F 78% 29.85 in 10.0 mi SE 24.2 mph 27.6 mph N/A   Overcast
6:31 PM 73.4 °F 66.2 °F 78% 29.85 in 10.0 mi SE 21.9 mph 27.6 mph N/A   Overcast
6:36 PM 73.4 °F 66.2 °F 78% 29.85 in 10.0 mi SE 26.5 mph 31.1 mph N/A   Mostly Cloudy
6:38 PM 73.4 °F 66.2 °F 78% 29.85 in 10.0 mi SE 23.0 mph 31.1 mph N/A   Mostly Cloudy
6:41 PM 73.4 °F 66.2 °F 78% 29.84 in 10.0 mi SE 20.7 mph 31.1 mph N/A   Mostly Cloudy
6:55 PM 73.0 °F 66.9 °F 81% 29.86 in 10.0 mi SE 17.3 mph - N/A   Partly Cloudy
7:55 PM 71.6 °F 66.4 °F 84% 29.86 in 10.0 mi SE 15.0 mph - N/A   Mostly Cloudy
8:53 PM 69.8 °F 66.2 °F 88% 29.85 in 10.0 mi SE 15.0 mph - N/A   Mostly Cloudy
8:55 PM 70.5 °F 66.6 °F 87% 29.85 in 10.0 mi SE 12.7 mph - N/A   Mostly Cloudy
9:55 PM 70.0 °F 67.3 °F 91% 29.86 in 10.0 mi SSE 12.7 mph - N/A   Mostly Cloudy
10:05 PM 69.8 °F 68.0 °F 94% 29.86 in 10.0 mi SE 15.0 mph - N/A   Scattered Clouds
10:31 PM 69.8 °F 68.0 °F 94% 29.87 in 10.0 mi SSE 19.6 mph 24.2 mph N/A   Mostly Cloudy
10:33 PM 69.8 °F 68.0 °F 94% 29.87 in 10.0 mi SSE 19.6 mph 24.2 mph N/A   Mostly Cloudy
10:34 PM 69.8 °F 68.0 °F 94% 29.87 in 10.0 mi SSE 18.4 mph 24.2 mph N/A   Mostly Cloudy
10:53 PM 71.6 °F 68.0 °F 88% 29.90 in 10.0 mi South 12.7 mph - N/A   Overcast
10:55 PM 70.9 °F 68.2 °F 91% 29.90 in 10.0 mi South 13.8 mph - N/A   Mostly Cloudy
11:02 PM 71.6 °F 68.0 °F 88% 29.90 in 10.0 mi South 13.8 mph - N/A   Overcast
11:53 PM 71.6 °F 68.0 °F 88% 29.91 in 10.0 mi South 11.5 mph - N/A   Overcast
11:55 PM 70.9 °F 68.5 °F 92% 29.91 in 10.0 mi South 9.2 mph - N/A   Overcast
11:57 PM 71.6 °F 68.0 °F 88% 29.91 in 10.0 mi South 10.4 mph - N/A   Overcast